User: anonymous   Login
Location: Unspecified
(0.0000°N, 0.0000°E)
Time: 21:52:48
(UTC+00:00)
Language:

DMSP B5D2-4 - Orbit

View from above orbital plane
View from above orbital plane
View from above satellite
View from above satellite

Ground track
Ground track

The orbit data is extracted from the following two-line orbital elements,

1 18822U 88006A   24176.54102200  .00000302  00000-0  13811-3 0  9999
2 18822  98.3211   4.5829 0007299  51.0299 309.1533 14.28018355893133
Epoch (UTC): 24 June 2024 12:59:04
Eccentricity: 0.0007299
inclination: 98.3211°
perigee height: 793 km
apogee height: 803 km
right ascension of ascending node: 4.5829°
argument of perigee: 51.0299°
revolutions per day: 14.28018355
mean anomaly at epoch: 309.1533°
orbit number at epoch: 89313

The dashed part of the orbit path shows where the satellite is in the earth's shadow,  

DLR